Location: Astronomy Club of Akron Observatory
(40.9700°N, 81.5606°W)
Time: 17:22:46
(UTC-04:00)

ISS - Pass Details

Date: 19 July 2018
Orbit: 402 x 408 km, 51.6° (Epoch: 16 July)

Event Time Altitude Azimuth Distance (km) Brightness Sun altitude
Rises 21:34:20 0° 198° (SSW) 2,302 -0.2 -7.2°
Reaches altitude 10° 21:36:47 10° 180° (S) 1,449 -1.4 -7.6°
Maximum altitude 21:39:10 19° 132° (SE) 1,030 -2.4 -8.0°
Drops below altitude 10° 21:41:34 10° 85° (E) 1,459 -1.4 -8.3°
Sets 21:44:02 0° 67° (ENE) 2,324 -0.3 -8.7°
